Weather in Gurzuf

Russia / Republic of Crimea     44˚32′50″N   34˚17′29″E
temp.,
°C
wind,
m/s
gust,
m/s
humid.,
%
clouds,
%
prec.,
mm/h
press.,
hPa
HPBL,
m
27 november, fri
fri2700:00+7˚se327895 0.1 1026572
03:00+7˚sse127689 0.1 1026556
06:00+8˚s3380100 0.1 1026548
09:00+8˚s3380100 0.2 1025580
12:00+9˚s3480100 0.1 1025649
15:00+9˚s4580100 0.1 1024644
18:00+10˚ssw448080 0.0 1023673
21:00+9˚s337990 0.1 1023676
28 november, sat
sat2800:00+8˚s128163 0.0 1023492
03:00+8˚ese128248 0.0 1022381
06:00+8˚ne028646 0.0 1021279
09:00+9˚ese138269 0.1 1021477
12:00+10˚ese237794 0.0 1021540
15:00+10˚e128084 0.0 1020248
18:00+9˚ene128288 0.0 1020282
21:00+9˚nne118494 0.0 1020183
29 november, sun
sun2900:00+9˚nnw118791 0.0 1020112
03:00+9˚wsw228085 0.0 1020166
06:00+10˚sw247478 0.0 1019303
09:00+10˚ssw237889 0.0 1020346
12:00+11˚ssw2374100 0.0 1020355
15:00+11˚ssw1171100 0.0 1020160
18:00+10˚nne1171100 0.0 1020103
21:00+10˚ne2275100 0.0 1020172
30 november, mon
mon3000:00+10˚ne3478100 0.0 1020221
03:00+10˚ne4463100 0.0 1019235
06:00+10˚ne4565100 0.0 1018213
09:00+10˚ne5570100 0.0 1018300
12:00+11˚ne556899 0.0 1018273
15:00+11˚ne4569100 0.0 1017198
18:00+9˚ne6676100 0.0 1016219
21:00+9˚ne5675100 0.0 1017242
1 december, tue
tue100:00+9˚ne4462100 0.0 1016187
03:00+9˚ne335899 0.0 1016208
06:00+8˚ene336790 0.0 1016223
09:00+8˚ene227484 0.0 1017209
12:00+9˚ese226886 0.0 1017216
15:00+9˚ese327255 0.0 1017220
18:00+8˚e227721 0.0 1017300
21:00+7˚e117910 0.0 1018294